Monticello, IA

7:05 PM CDT on June 24, 2017 (GMT -0500)
Monticello Regional

Weather History for KMXO - March, 2014

Change the Weather History Date:

Saturday, March 1, 2014

  Actual Average Record
Temperature  
Mean Temperature 12 °F -  
Max Temperature 21 °F 34 °F 57 °F (2004)
Min Temperature 3 °F 20 °F 3 °F (2014)
Degree Days  
Heating Degree Days 53    
Moisture  
Dew Point 5 °F    
Average Humidity 74    
Maximum Humidity 86    
Minimum Humidity 57    
Precipitation  
Precipitation 0.01 in - - ()
Sea Level Pressure  
Sea Level Pressure 30.26 in    
Wind  
Wind Speed 12 mph (NNW)    
Max Wind Speed 17 mph    
Max Gust Speed 22 mph    
Visibility 6 miles    
Events Snow    
Averages and records for this station are not official NWS values.
T = Trace of Precipitation, MM = Missing Value Source: NWS Daily Summary

Daily Weather History Graph

Daily Weather History Graph

Search for Another Location

Airport or City:

Trip Planner

Search our weather history database for the weather conditions in past years. The results will help you decide how hot, cold, wet, or windy it might be!

Date:

Astronomy

Mar. 01, 2014 Rise Set
Actual Time 6:39 AM CST 5:54 PM CST
Civil Twilight 6:11 AM CST 6:22 PM CST
Nautical Twilight 5:39 AM CST 6:55 PM CST
Astronomical Twilight 5:06 AM CST 7:27 PM CST
Moon 6:32 AM CST (3/1) 6:44 PM CST (3/1)
Length of Visible Light 12h 11m
Length of Day
11h 14m
New Moon, 0% of the Moon is Illuminated
Mar 1
New Moon
Mar 8
First Quarter
Mar 16
Full
Mar 23
Last Quarter
Mar 30
New

Hourly Weather History & Observations

Time (CST) Temp. Windchill Dew Point Humidity Pressure Visibility Wind Dir Wind Speed Gust Speed Precip Events Conditions
12:15 AM 21.2 °F 10.1 °F 17.6 °F 86% 30.04 in 5.0 mi North 10.4 mph - N/A Snow Light Snow
12:35 AM 21.2 °F 10.9 °F 17.6 °F 86% 30.06 in 7.0 mi NNW 9.2 mph - N/A Snow Light Snow
12:55 AM 19.4 °F 7.9 °F 15.8 °F 86% 30.05 in 10.0 mi North 10.4 mph - N/A   Overcast
1:15 AM 19.4 °F 9.5 °F 15.8 °F 86% 30.05 in 10.0 mi North 8.1 mph 13.8 mph N/A   Overcast
1:35 AM 19.4 °F 6.6 °F 14.0 °F 80% 30.06 in 10.0 mi North 12.7 mph - N/A   Overcast
1:55 AM 19.4 °F 7.9 °F 14.0 °F 80% 30.05 in 10.0 mi North 10.4 mph - N/A   Overcast
2:15 AM 19.4 °F 6.6 °F 14.0 °F 80% 30.07 in 10.0 mi NNW 12.7 mph - N/A   Overcast
2:35 AM 19.4 °F 6.6 °F 14.0 °F 80% 30.09 in 10.0 mi NNW 12.7 mph 19.6 mph N/A   Overcast
2:55 AM 17.6 °F 3.2 °F 14.0 °F 86% 30.08 in 10.0 mi NNW 15.0 mph - N/A   Overcast
3:15 AM 17.6 °F 2.7 °F 12.2 °F 79% 30.10 in 10.0 mi NNW 16.1 mph - N/A   Mostly Cloudy
3:35 AM 17.6 °F 3.2 °F 12.2 °F 79% 30.11 in 10.0 mi North 15.0 mph - N/A   Overcast
3:55 AM 17.6 °F 4.3 °F 10.4 °F 73% 30.11 in 10.0 mi North 12.7 mph - N/A   Overcast
4:15 AM 17.6 °F 4.3 °F 10.4 °F 73% 30.11 in 10.0 mi North 12.7 mph - N/A   Overcast
4:35 AM 15.8 °F 2.1 °F 10.4 °F 79% 30.14 in 10.0 mi NNW 12.7 mph - N/A   Overcast
4:55 AM 15.8 °F 2.1 °F 8.6 °F 73% 30.14 in 10.0 mi NNW 12.7 mph 19.6 mph N/A   Mostly Cloudy
5:15 AM 15.8 °F 0.9 °F 8.6 °F 73% 30.15 in 10.0 mi NNW 15.0 mph - N/A   Overcast
5:35 AM 15.8 °F 1.4 °F 8.6 °F 73% 30.15 in 10.0 mi NNW 13.8 mph - N/A   Overcast
5:55 AM 15.8 °F 2.1 °F 8.6 °F 73% 30.16 in 10.0 mi North 12.7 mph - N/A   Overcast
6:15 AM 15.8 °F 0.9 °F 6.8 °F 68% 30.19 in 10.0 mi North 15.0 mph - N/A   Overcast
6:35 AM 14.0 °F -0.8 °F 6.8 °F 73% 30.19 in 10.0 mi NNW 13.8 mph - N/A   Overcast
6:55 AM 14.0 °F -0.2 °F 6.8 °F 73% 30.19 in 10.0 mi North 12.7 mph 19.6 mph N/A   Overcast
7:15 AM 14.0 °F -0.8 °F 5.0 °F 67% 30.21 in 10.0 mi North 13.8 mph 20.7 mph N/A   Mostly Cloudy
7:35 AM 14.0 °F -0.8 °F 3.2 °F 62% 30.23 in 10.0 mi North 13.8 mph - N/A   Scattered Clouds
7:55 AM 14.0 °F -2.5 °F 1.4 °F 57% 30.24 in 10.0 mi North 17.3 mph - N/A   Scattered Clouds
8:15 AM 14.0 °F 2.9 °F 1.4 °F 57% 30.24 in 10.0 mi North 8.1 mph 17.3 mph N/A   Scattered Clouds
8:35 AM 14.0 °F 2.9 °F 3.2 °F 62% 30.25 in 10.0 mi North 8.1 mph - N/A   Partly Cloudy
8:55 AM 14.0 °F 1.2 °F 1.4 °F 57% 30.28 in 10.0 mi North 10.4 mph - N/A   Mostly Cloudy
9:15 AM 14.0 °F 1.2 °F 3.2 °F 62% 30.28 in 8.0 mi North 10.4 mph - N/A   Overcast
9:35 AM 14.0 °F 2.0 °F 3.2 °F 62% 30.28 in 10.0 mi North 9.2 mph 15.0 mph N/A   Mostly Cloudy
9:55 AM 14.0 °F 0.5 °F 3.2 °F 62% 30.28 in 10.0 mi North 11.5 mph - N/A   Mostly Cloudy
10:15 AM 14.0 °F 0.5 °F 3.2 °F 62% 30.28 in 10.0 mi NNW 11.5 mph - N/A   Scattered Clouds
10:35 AM 14.0 °F -0.2 °F 3.2 °F 62% 30.28 in 6.0 mi NNW 12.7 mph - N/A Snow Light Snow
10:55 AM 14.0 °F -0.2 °F 5.0 °F 67% 30.30 in 3.0 mi NNW 12.7 mph - N/A Snow Light Snow
11:15 AM 14.0 °F 1.2 °F 6.8 °F 73% 30.31 in 1.0 mi NNW 10.4 mph - N/A Snow Light Snow
11:35 AM 12.2 °F -1.0 °F 6.8 °F 79% 30.30 in 1.8 mi North 10.4 mph - N/A Snow Light Snow
11:55 AM 12.2 °F -3.1 °F 6.8 °F 79% 30.31 in 1.0 mi NNW 13.8 mph - N/A Snow Light Snow
12:15 PM 12.2 °F -2.5 °F 6.8 °F 79% 30.32 in 1.8 mi NNW 12.7 mph - N/A Snow Light Snow
12:35 PM 12.2 °F -1.8 °F 6.8 °F 79% 30.32 in 0.5 mi NNW 11.5 mph - N/A Snow Light Snow
12:55 PM 12.2 °F -3.7 °F 6.8 °F 79% 30.32 in 0.8 mi NNW 15.0 mph - N/A Snow Light Snow
1:15 PM 10.4 °F -6.6 °F 5.0 °F 79% 30.32 in 0.5 mi NNW 16.1 mph - N/A Snow Light Snow
1:35 PM 10.4 °F -5.4 °F 5.0 °F 79% 30.30 in 2.0 mi NNW 13.8 mph - N/A Snow Light Snow
1:55 PM 10.4 °F -6.6 °F 3.2 °F 73% 30.29 in 4.0 mi NNW 16.1 mph - N/A Snow Light Snow
2:15 PM 10.4 °F -7.2 °F 3.2 °F 73% 30.30 in 1.0 mi NNW 17.3 mph - N/A Snow Light Snow
2:35 PM 10.4 °F -4.8 °F 5.0 °F 79% 30.31 in 1.0 mi North 12.7 mph - N/A Snow Light Snow
2:55 PM 10.4 °F -6.0 °F 5.0 °F 79% 30.32 in 1.0 mi North 15.0 mph - N/A Snow Light Snow
3:15 PM 10.4 °F -5.4 °F 3.2 °F 73% 30.31 in 1.5 mi North 13.8 mph - N/A Snow Light Snow
3:35 PM 8.6 °F -6.3 °F 3.2 °F 79% 30.32 in 4.0 mi North 11.5 mph 17.3 mph N/A Snow Light Snow
3:55 PM 8.6 °F -7.7 °F 3.2 °F 79% 30.33 in 2.5 mi North 13.8 mph - N/A Snow Light Snow
4:15 PM 8.6 °F -7.7 °F 3.2 °F 79% 30.34 in 0.5 mi NNW 13.8 mph - N/A Snow Light Snow
4:35 PM 8.6 °F -6.3 °F 3.2 °F 79% 30.33 in 0.5 mi North 11.5 mph - N/A Snow Light Snow
4:55 PM 8.6 °F -6.3 °F 3.2 °F 79% 30.32 in 0.5 mi North 11.5 mph - 0.01 in Snow Light Snow
5:15 PM 6.8 °F -9.3 °F 3.2 °F 85% 30.34 in 0.5 mi NNW 12.7 mph - N/A Snow Light Snow
5:35 PM 6.8 °F -7.8 °F 1.4 °F 79% 30.35 in 0.8 mi NNW 10.4 mph 16.1 mph N/A Snow Light Snow
5:55 PM 6.8 °F -6.9 °F 1.4 °F 79% 30.35 in 0.2 mi NNW 9.2 mph 16.1 mph N/A Snow Snow
6:15 PM 6.8 °F -9.3 °F 1.4 °F 79% 30.36 in 0.5 mi NNW 12.7 mph - N/A Snow Light Snow
6:35 PM 6.8 °F -7.8 °F 1.4 °F 79% 30.36 in 0.5 mi NNW 10.4 mph - N/A Snow Light Snow
6:55 PM 6.8 °F -9.3 °F 1.4 °F 79% 30.35 in 2.5 mi NNW 12.7 mph - N/A Snow Light Snow
7:15 PM 6.8 °F -9.3 °F -0.4 °F 72% 30.37 in 5.0 mi NNW 12.7 mph - N/A Snow Light Snow
7:35 PM 6.8 °F -9.3 °F -0.4 °F 72% 30.38 in 9.0 mi NNW 12.7 mph - N/A Snow Light Snow
7:55 PM 5.0 °F -11.6 °F -0.4 °F 78% 30.37 in 10.0 mi NNW 12.7 mph - N/A   Overcast
8:15 PM 5.0 °F -13.0 °F -2.2 °F 72% 30.38 in 10.0 mi NNW 15.0 mph - N/A   Overcast
8:35 PM 5.0 °F -12.3 °F -2.2 °F 72% 30.39 in 10.0 mi NNW 13.8 mph - N/A Snow Light Snow
8:55 PM 5.0 °F -12.3 °F -2.2 °F 72% 30.39 in 2.5 mi NNW 13.8 mph 20.7 mph N/A Snow Light Snow
9:15 PM 5.0 °F -10.8 °F -0.4 °F 78% 30.39 in 1.5 mi NNW 11.5 mph - N/A Snow Light Snow
9:35 PM 3.2 °F -13.9 °F -2.2 °F 78% 30.38 in 1.2 mi NNW 12.7 mph - N/A Snow Light Snow
9:55 PM 3.2 °F -13.1 °F -2.2 °F 78% 30.39 in 9.0 mi NNW 11.5 mph - N/A Snow Light Snow
10:15 PM 3.2 °F -15.3 °F -4.0 °F 72% 30.38 in 5.0 mi North 15.0 mph - N/A Snow Light Snow
10:35 PM 3.2 °F -15.3 °F -4.0 °F 72% 30.39 in 2.5 mi NNW 15.0 mph - N/A Snow Light Snow
10:55 PM 3.2 °F -15.9 °F -4.0 °F 72% 30.40 in 4.0 mi NNW 16.1 mph 21.9 mph N/A Snow Light Snow
11:15 PM 3.2 °F -15.3 °F -5.8 °F 66% 30.41 in 10.0 mi NNW 15.0 mph 21.9 mph N/A   Overcast
11:35 PM 3.2 °F -13.1 °F -5.8 °F 66% 30.41 in 10.0 mi NNW 11.5 mph - N/A   Overcast
11:55 PM 3.2 °F -13.9 °F -7.6 °F 61% 30.41 in 10.0 mi North 12.7 mph - N/A   Overcast